Wind_Speed
5 5 4 4 4 3 2 1 2 3 4 5 7 8 9 9 9 9 10 11 11 12 13 14 15 15 16 16 16 17 17 17 17 18 18 18 18 18 18 18 18 18 18 19 19 19 19 19 19
4 4 4 3 2 2 3 1 1 2 2 3 5 6 7 7 7 8 9 9 10 11 12 13 14 15 15 16 17 17 17 17 18 18 18 18 18 18 18 18 18 19 19 19 19 19 19 19 19
2 2 2 2 2 2 2 1 1 2 2 3 4 5 6 6 6 7 8 8 9 10 12 13 14 14 15 16 16 17 17 18 18 18 18 18 18 18 18 18 19 18 18 18 18 18 18 19 19
0 0 1 1 1 2 1 1 1 3 3 4 5 5 5 6 6 7 8 9 10 11 12 13 14 15 15 16 17 17 18 18 18 18 18 18 18 18 18 18 18 18 18 18 18 18 19 19 19
2 2 1 1 1 1 1 2 3 4 5 5 6 6 5 7 7 8 10 10 11 12 13 14 15 15 16 17 18 18 18 19 19 20 20 19 19 19 19 18 18 18 18 18 19 19 19 19 19
5 4 4 3 3 3 3 4 4 5 6 7 7 8 6 8 9 10 11 12 12 13 14 16 16 17 18 19 19 20 20 20 20 21 20 20 20 20 20 19 19 19 19 19 19 19 20 19 19
7 7 6 6 5 6 6 6 7 7 8 9 9 10 7 8 11 11 13 14 14 15 16 17 18 19 20 20 21 21 21 22 22 22 22 22 21 21 21 21 21 20 20 20 20 20 20 20 20
10 9 8 8 8 9 9 8 9 10 11 11 11 12 10 11 12 13 14 15 16 17 17 19 19 20 21 22 22 22 23 23 23 23 23 23 23 23 23 23 23 22 22 22 22 21 21 21 21
12 12 12 11 11 11 11 11 12 12 13 13 14 14 14 14 14 15 16 16 17 18 19 19 21 21 22 22 23 23 23 23 24 24 24 25 24 24 25 25 24 24 24 24 24 23 23 23 24
15 15 15 14 14 13 13 14 14 14 15 16 16 16 16 17 17 18 18 18 19 19 20 20 21 22 22 23 23 24 24 24 25 25 26 26 26 26 26 26 26 26 26 26 26 26 26 26 26
17 17 17 16 16 16 16 16 16 16 17 17 18 18 18 19 20 20 20 20 20 21 21 21 21 22 23 23 24 24 25 25 26 26 26 27 27 27 27 28 28 28 28 28 28 28 29 29 29
19 19 18 18 17 17 17 18 18 17 18 19 20 20 20 21 21 21 21 21 21 22 22 22 22 22 22 23 23 24 24 25 25 26 26 27 27 28 28 28 29 30 30 30 30 31 31 32 32
20 20 19 19 18 19 19 19 19 19 19 20 21 21 22 22 21 21 22 22 22 22 22 22 22 22 22 23 23 23 23 24 25 26 26 27 27 28 28 29 29 30 31 31 32 33 33 34 35
22 21 21 20 20 20 20 20 20 20 20 21 21 21 22 22 21 21 21 22 21 21 21 21 22 22 22 22 23 23 24 24 25 26 26 27 27 28 28 29 30 30 31 32 32 34 35 36 37
23 22 22 22 21 21 22 21 20 20 21 21 21 21 21 21 21 21 21 20 20 20 20 21 21 21 22 22 23 24 24 25 26 26 27 28 28 28 29 29 30 31 32 32 33 34 35 36 37
25 24 24 23 23 22 23 22 21 21 22 22 22 21 21 20 20 20 20 20 20 20 20 20 21 21 22 23 24 25 26 27 28 28 29 29 29 30 30 30 31 32 32 33 34 35 36 36 37
26 25 25 25 23 23 23 23 21 21 22 22 21 20 20 20 20 20 19 19 19 19 19 20 21 22 24 25 26 27 28 29 29 30 30 30 31 31 31 31 31 32 32 33 33 34 35 36 37
27 26 25 26 24 23 24 23 22 20 21 21 20 20 19 19 19 19 19 19 19 20 20 21 23 24 25 26 28 29 29 30 30 30 31 31 31 31 31 31 32 32 32 33 34 35 36 36 38
27 26 25 26 25 24 23 23 22 20 20 20 20 19 19 19 19 19 19 19 20 21 22 23 24 25 26 27 28 29 29 30 30 30 30 30 30 30 30 30 31 31 32 33 34 35 35 36 38
27 26 26 27 26 24 24 23 22 20 20 20 20 19 19 19 19 19 19 20 21 22 23 24 25 25 26 27 28 29 30 30 30 29 29 29 29 29 29 30 31 31 32 33 35 36 36 37 39
27 26 26 26 26 25 25 23 22 20 20 20 20 20 20 20 19 20 20 21 22 23 24 25 26 26 27 28 29 29 30 29 29 28 28 28 29 29 30 31 31 32 33 34 36 37 38 40 42
27 26 26 26 27 26 26 25 21 20 21 21 21 21 20 20 21 21 22 23 24 25 25 26 27 27 29 30 30 30 30 29 29 29 29 30 30 31 32 33 34 35 36 38 39 41 42 44 45
27 27 27 27 28 27 25 27 23 20 20 22 22 22 21 22 22 23 23 24 25 26 26 27 28 29 30 31 31 31 30 30 30 31 31 32 33 33 35 36 37 38 40 41 43 45 47 49 50
28 28 28 28 29 27 23 28 25 21 20 22 23 23 23 23 23 24 24 25 26 27 28 29 30 31 32 33 33 33 32 32 32 33 34 35 36 37 38 39 40 42 44 46 47 49 51 53 55
28 28 28 28 28 28 25 27 26 23 22 23 23 23 23 24 24 25 25 27 27 28 29 30 31 33 34 34 35 34 34 34 35 36 36 37 39 40 41 42 44 46 48 50 52 53 55 57 59
29 29 28 29 28 28 26 25 24 23 24 24 24 24 24 25 26 26 27 28 29 30 31 32 33 35 35 36 36 36 36 37 37 38 39 40 41 43 44 46 48 50 52 54 55 57 59 60 62
30 29 28 29 28 28 27 26 24 22 25 25 25 25 26 27 27 28 29 30 31 32 33 34 36 36 37 38 38 38 38 39 39 40 41 43 45 46 48 50 51 53 55 57 58 60 62 64 65
31 29 28 29 28 29 28 26 25 21 23 26 26 27 27 28 28 29 30 31 33 34 36 37 38 38 39 39 39 40 40 41 42 43 44 46 48 49 51 52 54 55 57 59 61 63 65 67 68
30 28 28 29 29 29 29 28 26 23 24 26 28 29 29 29 30 31 32 34 35 37 38 39 40 40 40 40 41 41 42 43 44 45 46 48 50 51 53 55 56 58 60 62 64 66 68 70 71
30 29 29 30 29 30 30 29 26 26 26 28 29 30 30 31 32 33 34 36 37 39 40 41 42 42 42 42 43 43 44 45 46 47 49 51 52 54 55 57 59 61 63 65 67 69 70 72 74
Wind_Direction
80 88 97 108 125 155 150 170 228 240 245 249 248 249 251 255 261 267 265 268 270 271 271 272 272 273 274 275 276 275 276 277 277 277 277 276 277 277 276 276 276 276 276 276 276 275 274 273 272
81 84 93 96 112 127 110 129 252 270 266 258 254 254 257 260 262 267 269 273 274 275 275 274 274 275 276 276 277 277 278 278 278 278 277 277 278 278 278 277 277 277 277 276 276 276 275 274 273
83 81 85 81 78 59 81 58 293 287 281 274 268 268 269 270 270 271 274 276 277 278 279 278 277 277 278 278 279 279 279 280 279 279 279 279 279 279 279 278 278 278 277 277 276 276 276 276 275
110 88 97 76 59 52 41 343 282 271 271 272 276 279 280 281 278 276 279 280 280 281 281 280 279 278 279 279 280 280 281 281 281 281 281 281 280 280 281 280 279 279 278 277 276 276 276 276 275
251 260 266 276 294 315 298 289 279 271 269 273 278 282 284 282 283 282 283 283 282 282 282 281 280 280 280 280 281 282 282 283 283 283 282 282 281 281 281 280 280 280 279 277 276 276 275 275 274
255 260 262 268 272 272 272 274 274 274 273 273 277 282 282 278 281 282 283 284 284 282 282 282 282 282 282 282 282 283 284 284 284 283 283 282 281 280 280 280 280 280 279 278 276 275 275 274 274
256 262 262 265 267 269 269 271 272 273 274 275 278 280 282 276 278 279 281 283 284 283 283 283 283 283 283 284 284 284 284 284 284 283 283 282 281 281 280 280 280 279 278 278 277 275 274 273 272
256 262 265 265 265 268 270 271 271 273 274 276 278 282 287 277 278 279 280 282 283 283 283 283 283 283 283 283 284 284 284 284 284 283 282 282 281 281 280 279 279 278 277 277 276 274 273 271 270
257 260 263 265 267 269 272 271 271 272 273 274 277 280 284 282 281 281 281 282 283 283 283 282 282 282 282 283 283 283 283 283 283 283 283 281 280 280 279 278 277 276 276 275 274 273 272 271 270
257 260 263 267 268 269 271 271 270 270 272 273 275 277 280 281 282 282 283 284 285 285 284 283 282 282 282 282 283 283 283 283 283 283 283 282 280 279 278 277 276 275 274 273 273 272 271 270 269
257 260 265 268 270 270 270 270 270 270 271 273 274 275 275 278 280 282 284 284 285 286 285 285 283 284 284 284 284 284 284 284 284 284 283 282 281 279 278 277 276 275 274 273 272 271 270 269 269
257 261 265 269 270 270 270 271 272 271 271 271 272 275 277 277 279 280 282 283 283 284 285 285 285 285 286 286 286 286 286 286 286 285 284 283 282 280 279 277 276 275 274 273 272 272 271 270 269
258 261 265 268 269 270 271 272 273 273 272 272 273 275 277 278 278 280 281 282 282 283 283 284 285 286 287 288 288 288 288 288 287 287 286 285 284 282 281 279 278 276 275 274 273 272 271 270 269
258 260 264 267 269 270 271 272 273 272 273 273 274 275 276 276 278 279 280 281 281 282 282 284 286 287 287 288 289 289 289 289 289 288 288 287 285 284 283 281 280 278 277 276 276 275 274 273 272
257 259 262 266 269 270 272 272 273 273 273 274 275 276 276 277 277 278 278 279 280 281 283 284 285 287 287 288 288 289 289 289 288 288 287 286 286 285 284 283 282 280 279 278 277 277 276 275 275
256 259 261 264 268 270 273 273 273 272 273 274 275 275 276 276 276 277 277 278 279 280 282 283 285 286 288 288 289 289 290 290 289 288 287 286 286 285 284 283 282 282 281 280 279 279 278 278 277
254 258 262 264 265 270 273 274 274 272 273 274 274 274 274 275 275 275 275 276 278 279 280 282 284 286 287 289 289 289 289 289 289 288 287 286 285 285 284 284 283 283 282 282 281 281 280 280 279
253 257 262 267 266 268 271 273 273 272 272 273 273 273 272 272 272 273 274 275 277 279 281 283 286 287 289 289 290 290 289 289 289 288 287 287 286 285 284 284 283 284 283 283 282 282 282 282 282
254 257 262 266 269 269 270 271 272 272 272 272 272 271 270 271 271 272 274 276 278 281 283 286 288 290 291 292 291 291 290 290 289 289 288 287 286 286 286 286 286 285 285 285 284 284 284 284 284
252 255 259 263 267 269 269 270 271 271 271 272 271 271 270 270 270 273 275 278 281 284 286 289 291 292 292 293 293 292 291 290 289 288 287 287 287 287 287 287 287 287 287 287 287 286 287 287 287
250 254 257 261 265 268 269 268 269 271 270 271 271 270 270 270 271 274 277 280 283 286 289 291 292 293 294 294 294 293 291 290 289 288 287 287 287 287 287 288 288 288 288 288 288 288 289 289 289
249 253 256 260 265 267 269 268 266 268 271 271 271 270 271 271 273 276 279 282 285 288 290 292 292 293 295 295 295 294 292 290 288 287 287 287 288 288 288 289 289 289 289 289 289 290 290 290 290
248 251 256 259 263 265 269 271 269 267 269 269 270 271 272 273 275 277 280 283 286 288 291 292 293 294 295 296 295 293 291 289 288 288 288 288 288 288 289 289 289 290 290 290 291 291 292 292 292
248 251 256 259 261 264 266 271 272 271 269 270 271 272 273 274 275 278 281 284 286 289 291 292 293 294 295 295 294 292 290 289 288 288 288 288 288 288 289 290 291 291 292 292 293 293 294 294 294
248 251 256 258 260 264 263 267 274 277 273 271 272 273 274 275 276 279 282 284 287 289 291 292 293 294 294 294 293 291 289 288 288 288 288 289 289 290 290 291 292 292 293 293 293 294 295 295 295
246 250 255 258 259 264 265 269 274 277 276 274 273 274 275 276 278 280 282 285 287 289 290 292 293 294 294 293 291 289 288 288 288 288 289 289 290 291 291 292 293 293 294 294 294 295 295 295 296
246 250 254 256 258 264 269 273 273 274 276 276 276 276 276 277 280 282 283 285 287 289 291 292 293 294 294 292 290 288 287 287 288 288 289 289 290 290 291 292 293 294 294 295 295 296 296 296 297
248 249 250 253 259 263 267 272 274 271 274 276 276 277 278 279 281 284 285 286 288 290 291 292 293 294 294 292 290 289 288 288 288 288 289 290 291 291 292 293 294 295 295 296 296 297 297 297 298
248 248 249 253 258 263 269 271 274 275 274 275 276 278 279 281 283 285 287 287 289 290 291 292 293 294 294 293 291 290 289 289 289 290 290 291 292 293 294 294 295 296 297 298 298 298 299 299 300
245 246 249 253 258 262 266 269 275 277 277 276 277 279 281 282 284 286 287 288 289 291 292 293 293 294 294 293 292 291 290 290 290 291 292 293 294 294 295 296 297 298 299 300 300 300 301 301 302
Height
5860 5860 5861 5861 5862 5862 5861 5862 5862 5862 5863 5864 5864 5865 5866 5867 5869 5872 5871 5870 5871 5872 5872 5873 5873 5874 5874 5874 5874 5875 5875 5875 5875 5875 5875 5875 5875 5875 5875 5875 5875 5875 5875 5875 5875 5876 5876 5876 5876
5861 5861 5862 5862 5862 5861 5861 5861 5862 5862 5863 5863 5863 5864 5864 5865 5867 5868 5868 5869 5869 5870 5870 5871 5871 5871 5872 5872 5872 5872 5872 5872 5872 5872 5872 5872 5872 5872 5872 5872 5872 5872 5872 5872 5872 5873 5873 5873 5873
5862 5862 5863 5862 5862 5861 5861 5862 5862 5862 5863 5863 5863 5863 5864 5865 5866 5866 5866 5867 5868 5868 5868 5869 5869 5869 5869 5869 5869 5870 5870 5870 5870 5870 5870 5870 5869 5869 5869 5869 5869 5869 5869 5869 5869 5869 5870 5870 5870
5862 5862 5863 5863 5862 5861 5861 5862 5862 5862 5863 5863 5863 5863 5863 5864 5864 5864 5865 5865 5866 5866 5867 5867 5867 5867 5867 5867 5867 5867 5867 5867 5867 5867 5867 5867 5867 5867 5866 5866 5866 5866 5866 5866 5866 5866 5866 5867 5867
5862 5862 5863 5862 5861 5861 5861 5861 5862 5862 5862 5862 5862 5862 5863 5863 5863 5863 5863 5863 5864 5864 5865 5864 5865 5865 5865 5865 5865 5864 5864 5864 5864 5864 5864 5864 5864 5864 5863 5863 5863 5863 5863 5863 5863 5863 5863 5863 5864
5861 5861 5862 5861 5861 5861 5861 5861 5861 5861 5861 5861 5861 5861 5861 5862 5861 5861 5861 5861 5862 5862 5862 5862 5862 5862 5862 5862 5862 5861 5861 5861 5861 5861 5861 5860 5860 5860 5860 5860 5860 5860 5860 5860 5860 5860 5860 5860 5860
5861 5860 5860 5860 5860 5860 5860 5860 5860 5860 5860 5860 5860 5860 5860 5860 5860 5860 5859 5859 5859 5859 5860 5859 5859 5859 5859 5858 5858 5858 5858 5858 5857 5857 5857 5857 5857 5856 5856 5856 5856 5856 5856 5856 5856 5856 5856 5856 5856
5858 5859 5858 5858 5858 5858 5859 5859 5859 5859 5859 5859 5858 5858 5859 5859 5858 5858 5857 5857 5857 5857 5857 5856 5855 5855 5855 5855 5854 5854 5854 5854 5853 5853 5853 5853 5853 5852 5852 5852 5852 5852 5852 5852 5852 5852 5852 5852 5852
5856 5858 5857 5856 5856 5857 5857 5857 5857 5857 5857 5856 5856 5856 5856 5856 5855 5855 5855 5854 5854 5853 5853 5853 5852 5851 5851 5851 5850 5850 5849 5849 5849 5849 5848 5848 5848 5848 5847 5847 5847 5847 5847 5847 5847 5847 5847 5847 5847
5854 5854 5854 5854 5854 5854 5854 5855 5855 5855 5854 5854 5854 5853 5853 5852 5852 5852 5852 5851 5851 5850 5849 5849 5849 5847 5847 5846 5846 5845 5845 5845 5844 5844 5844 5843 5843 5843 5842 5842 5842 5842 5842 5842 5841 5841 5842 5842 5842
5850 5851 5851 5851 5851 5851 5851 5851 5851 5852 5852 5851 5851 5850 5850 5849 5849 5848 5848 5848 5847 5846 5845 5845 5845 5844 5843 5842 5841 5841 5840 5840 5839 5839 5838 5838 5837 5837 5837 5836 5836 5836 5836 5836 5836 5835 5835 5835 5835
5847 5847 5847 5848 5848 5848 5848 5848 5848 5848 5848 5847 5847 5846 5846 5846 5845 5845 5844 5843 5843 5842 5841 5840 5840 5840 5838 5838 5837 5836 5835 5835 5834 5833 5833 5832 5832 5831 5831 5830 5830 5829 5829 5829 5829 5829 5828 5828 5828
5843 5843 5843 5844 5844 5844 5844 5844 5844 5844 5843 5843 5843 5842 5842 5841 5841 5840 5840 5839 5838 5838 5837 5836 5835 5835 5834 5833 5832 5831 5831 5830 5829 5828 5827 5826 5826 5825 5825 5824 5823 5823 5822 5822 5822 5821 5821 5821 5820
5838 5839 5839 5839 5839 5839 5839 5839 5839 5839 5839 5838 5838 5838 5838 5837 5837 5836 5835 5834 5834 5833 5833 5832 5831 5830 5829 5829 5828 5827 5826 5825 5823 5822 5821 5820 5820 5819 5818 5817 5817 5816 5815 5815 5814 5814 5813 5813 5812
5833 5834 5834 5835 5835 5834 5835 5835 5835 5834 5834 5834 5833 5833 5833 5833 5832 5832 5831 5830 5829 5829 5828 5827 5827 5826 5825 5824 5823 5822 5820 5819 5818 5817 5815 5814 5813 5812 5811 5810 5810 5809 5808 5807 5806 5806 5805 5805 5804
5827 5828 5829 5830 5829 5829 5831 5830 5830 5829 5829 5829 5828 5828 5828 5828 5828 5827 5827 5826 5825 5825 5824 5823 5822 5821 5820 5819 5818 5817 5815 5814 5812 5811 5809 5808 5807 5806 5805 5803 5802 5801 5800 5799 5798 5797 5797 5796 5795
5821 5823 5823 5824 5825 5824 5825 5824 5825 5824 5824 5823 5823 5823 5823 5823 5823 5823 5822 5822 5821 5821 5820 5819 5818 5817 5815 5814 5813 5811 5809 5808 5806 5804 5803 5801 5800 5798 5797 5796 5794 5793 5792 5791 5790 5789 5788 5787 5786
5816 5817 5817 5817 5819 5819 5819 5819 5819 5819 5819 5818 5818 5818 5819 5819 5818 5818 5818 5817 5817 5816 5815 5814 5813 5812 5810 5809 5807 5805 5803 5801 5799 5797 5796 5794 5792 5791 5790 5788 5787 5786 5785 5783 5782 5781 5780 5779 5777
5810 5811 5812 5812 5812 5813 5813 5813 5813 5814 5814 5814 5814 5814 5814 5814 5814 5813 5813 5812 5812 5811 5810 5809 5808 5806 5804 5803 5801 5799 5797 5795 5793 5790 5789 5787 5785 5784 5782 5781 5780 5778 5777 5775 5774 5772 5771 5769 5767
5804 5805 5805 5806 5806 5807 5807 5808 5808 5808 5809 5809 5809 5809 5809 5809 5809 5809 5808 5808 5807 5806 5805 5803 5802 5800 5798 5796 5794 5792 5790 5788 5786 5784 5782 5780 5778 5777 5775 5774 5772 5771 5769 5767 5765 5763 5762 5760 5757
5797 5799 5800 5800 5800 5801 5801 5803 5803 5803 5803 5803 5804 5804 5804 5804 5804 5804 5803 5802 5801 5800 5799 5797 5795 5794 5792 5790 5787 5785 5783 5781 5779 5777 5775 5774 5772 5770 5768 5767 5765 5763 5761 5759 5757 5754 5752 5750 5748
5791 5793 5794 5794 5794 5795 5796 5796 5799 5798 5798 5798 5798 5798 5799 5799 5799 5798 5798 5797 5796 5794 5793 5791 5789 5787 5785 5783 5780 5778 5776 5774 5772 5771 5769 5767 5765 5763 5761 5759 5757 5755 5752 5750 5747 5745 5742 5739 5737
5785 5787 5788 5788 5788 5789 5790 5789 5792 5793 5793 5792 5792 5793 5793 5793 5793 5792 5792 5791 5789 5788 5786 5784 5783 5780 5778 5776 5773 5771 5769 5767 5765 5763 5761 5759 5757 5755 5753 5750 5748 5746 5743 5740 5737 5734 5731 5727 5724
5779 5781 5781 5781 5781 5783 5785 5782 5784 5787 5787 5787 5787 5787 5787 5787 5787 5786 5785 5784 5783 5782 5780 5778 5776 5773 5771 5768 5766 5763 5761 5759 5757 5755 5753 5751 5749 5747 5744 5741 5738 5735 5732 5729 5726 5722 5718 5714 5710
5773 5775 5775 5775 5776 5777 5779 5777 5779 5780 5781 5781 5781 5781 5781 5781 5781 5780 5779 5778 5777 5775 5773 5771 5769 5766 5764 5761 5758 5756 5754 5751 5749 5747 5745 5742 5740 5737 5734 5731 5728 5725 5721 5717 5713 5709 5705 5700 5695
5765 5767 5770 5770 5770 5769 5771 5772 5774 5774 5773 5773 5774 5775 5775 5774 5774 5773 5773 5771 5770 5768 5766 5764 5761 5759 5756 5753 5751 5748 5745 5743 5741 5738 5736 5733 5730 5727 5724 5720 5717 5713 5709 5704 5700 5696 5690 5685 5680
5758 5761 5762 5763 5763 5764 5765 5766 5768 5768 5767 5766 5767 5768 5768 5768 5767 5766 5765 5764 5763 5761 5758 5756 5754 5751 5748 5745 5742 5739 5737 5734 5732 5729 5726 5723 5720 5717 5713 5709 5705 5700 5696 5691 5686 5681 5675 5669 5663
5752 5754 5755 5755 5757 5757 5759 5760 5761 5763 5762 5761 5760 5761 5761 5761 5760 5759 5758 5756 5755 5752 5750 5748 5745 5742 5739 5736 5733 5730 5728 5725 5722 5719 5716 5713 5709 5705 5701 5697 5692 5687 5682 5676 5671 5665 5659 5652 5646
5745 5747 5748 5749 5751 5752 5753 5755 5754 5756 5756 5755 5754 5754 5754 5753 5752 5751 5750 5748 5746 5744 5741 5739 5736 5733 5730 5727 5724 5721 5718 5715 5712 5708 5705 5701 5697 5693 5688 5683 5678 5673 5667 5661 5654 5648 5641 5634 5627
5737 5740 5741 5744 5745 5745 5746 5750 5748 5748 5748 5747 5746 5746 5746 5745 5744 5743 5741 5739 5737 5735 5732 5729 5726 5723 5720 5717 5713 5710 5707 5704 5701 5697 5693 5689 5684 5680 5674 5669 5664 5657 5651 5644 5637 5630 5623 5615 5607